Location: Canon Road
(40.7761°N, 111.8849°W)
Time: 21:56:57
(UTC+00:00)

LightSail 2 - Pass Details

Date: 09 April 2020
Orbit: 692 x 722 km, 24.0° (Epoch: 06 June)

Event Time Altitude Azimuth Distance (km) Brightness Sun altitude
Exits shadow 11:51:01 - 203° (SSW) 2,285 7.3 -12.8°
Reaches altitude 10° 11:52:10 10° 190° (S) 2,137 7.3 -12.6°
Maximum altitude 11:53:23 11° 176° (S) 2,081 7.4 -12.4°
Drops below altitude 10° 11:54:36 10° 162° (SSE) 2,134 7.6 -12.2°
Sets 11:59:02 0° 126° (SE) 3,047 8.9 -11.4°
